K5LRY-13 Weather Reports


Display with metric or nautical units.
time (UTC)temp
F
wind
direction
speed
MPH
gust
MPH
rain 1hr
in
rain 24hr
in
rain mn
in
humidity
%
barometer
mb
20260510093337 46 295 0.0 0.0 0.00 0.00 0.00 39 1026.8
20260510091835 47 295 0.0 2.0 0.00 0.00 0.00 37 1026.6
20260510090322 49 295 0.0 3.0 0.00 0.00 0.00 32 1026.4
20260510084817 51 295 0.0 0.0 0.00 0.00 0.00 29 1026.4
20260510083313 53 295 0.0 2.0 0.00 0.00 0.00 25 1026.4
20260510081833 54 330 1.0 4.0 0.00 0.00 0.00 23 1026.5
20260510080319 50 166 3.0 8.0 0.00 0.00 0.00 27 1026.4
20260510074814 48 133 0.0 7.0 0.00 0.00 0.00 35 1026.4
20260510073330 47 106 0.0 1.0 0.00 0.00 0.00 36 1026.5
20260510071823 48 106 0.0 2.0 0.00 0.00 0.00 34 1026.5
20260510070316 49 106 0.0 4.0 0.00 0.00 0.00 31 1026.5
20260510064831 51 106 1.0 6.0 0.00 0.00 0.00 27 1026.3
20260510063327 52 74 3.0 6.0 0.00 0.00 0.00 27 1026.1
20260510061819 53 74 3.0 9.0 0.00 0.00 0.00 25 1026.0
20260510060322 53 50 3.0 11.0 0.00 0.00 0.00 27 1026.0
20260510054821 51 129 3.0 7.0 0.00 0.00 0.00 28 1026.2
20260510053338 51 149 3.0 6.0 0.00 0.00 0.00 28 1026.1
20260510051838 52 149 1.0 7.0 0.00 0.00 0.00 27 1026.0
20260510050336 53 160 2.0 5.0 0.00 0.00 0.00 27 1025.8
20260510044838 55 160 1.0 7.0 0.00 0.00 0.00 25 1026.1
20260510043321 56 135 2.0 8.0 0.00 0.00 0.00 24 1026.1
20260510041834 56 220 1.0 17.0 0.00 0.00 0.00 23 1026.1
20260510040328 56 87 4.0 8.0 0.00 0.00 0.00 24 1025.9
20260510034822 56 54 3.0 6.0 0.00 0.00 0.00 23 1025.5
20260510033338 58 46 1.0 4.0 0.00 0.00 0.00 23 1025.5
20260510031824 58 82 4.0 8.0 0.00 0.00 0.00 21 1025.4
20260510030345 59 135 2.0 14.0 0.00 0.00 0.00 20 1025.4
20260510024839 60 183 2.0 6.0 0.00 0.00 0.00 20 1025.2
20260510023314 60 165 5.0 11.0 0.00 0.00 0.00 18 1025.1
20260510021827 61 163 4.0 10.0 0.00 0.00 0.00 17 1025.0
20260510020342 62 182 4.0 10.0 0.00 0.00 0.00 15 1024.9
20260510014815 63 188 1.0 10.0 0.00 0.00 0.00 12 1024.7
20260510013331 64 241 4.0 13.0 0.00 0.00 0.00 12 1024.5
20260510011824 66 301 5.0 10.0 0.00 0.00 0.00 12 1024.4
20260510010317 67 219 5.0 10.0 0.00 0.00 0.00 11 1024.4
20260510004811 69 256 5.0 13.0 0.00 0.00 0.00 11 1024.3
20260510003326 70 275 6.0 18.0 0.00 0.00 0.00 11 1024.3
20260510001812 69 274 6.0 18.0 0.00 0.00 0.00 11 1024.6
20260510000328 69 297 6.0 12.0 0.00 0.00 0.00 10 1024.6
20260509234822 68 213 3.0 11.0 0.00 0.00 0.00 12 1024.6
20260509233338 70 285 5.0 11.0 0.00 0.00 0.00 11 1024.8
20260509231836 70 254 7.0 24.0 0.00 0.00 0.00 13 1024.9
20260509230311 68 276 6.0 18.0 0.00 0.00 0.00 12 1024.9
20260509224825 69 276 9.0 23.0 0.00 0.00 0.00 11 1024.9
20260509223325 70 220 7.0 19.0 0.00 0.00 0.00 10 1025.0
20260509221817 71 221 8.0 17.0 0.00 0.00 0.00 12 1025.4
20260509220333 72 233 6.0 13.0 0.00 0.00 0.00 10 1025.4
20260509214821 72 228 8.0 16.0 0.00 0.00 0.00 11 1025.5
20260509213316 72 172 8.0 16.0 0.00 0.00 0.00 11 1025.8
20260509211830 71 264 10.0 20.0 0.00 0.00 0.00 10 1025.9
20260509210324 71 223 6.0 18.0 0.00 0.00 0.00 12 1025.8
20260509204837 71 253 7.0 14.0 0.00 0.00 0.00 11 1026.1
20260509203331 72 235 4.0 13.0 0.00 0.00 0.00 12 1026.2
20260509201824 72 288 10.0 19.0 0.00 0.00 0.00 11 1026.5
20260509200339 72 257 7.0 22.0 0.00 0.00 0.00 10 1026.9
20260509194812 70 299 6.0 20.0 0.00 0.00 0.00 14 1026.8
20260509193328 69 241 10.0 19.0 0.00 0.00 0.00 11 1027.0
20260509191821 71 278 7.0 18.0 0.00 0.00 0.00 12 1026.6
20260509190314 69 245 9.0 21.0 0.00 0.00 0.00 13 1026.8
20260509184828 69 248 7.0 16.0 0.00 0.00 0.00 13 1026.8
20260509183324 69 287 6.0 15.0 0.00 0.00 0.00 16 1026.7
20260509181818 69 264 8.0 18.0 0.00 0.00 0.00 12 1027.3
20260509180332 68 272 6.0 15.0 0.00 0.00 0.00 17 1027.3
20260509174825 68 186 8.0 17.0 0.00 0.00 0.00 14 1027.3
20260509173320 68 204 7.0 15.0 0.00 0.00 0.00 13 1027.1
20260509171813 68 261 10.0 19.0 0.00 0.00 0.00 14 1027.2
20260509170349 67 174 5.0 10.0 0.00 0.00 0.00 19 1027.2
20260509164822 66 217 5.0 15.0 0.00 0.00 0.00 18 1027.2
20260509163317 66 245 4.0 11.0 0.00 0.00 0.00 19 1027.0
20260509161830 65 232 6.0 17.0 0.00 0.00 0.00 17 1027.1
20260509160318 64 212 4.0 10.0 0.00 0.00 0.00 21 1027.0
20260509154812 63 182 4.0 9.0 0.00 0.00 0.00 21 1026.9
20260509153334 61 189 4.0 9.0 0.00 0.00 0.00 23 1026.8
20260509151823 59 186 3.0 8.0 0.00 0.00 0.00 24 1026.7
20260509150317 58 195 4.0 7.0 0.00 0.00 0.00 25 1026.6
20260509144833 56 174 1.0 4.0 0.00 0.00 0.00 28 1026.5
20260509143328 53 157 0.0 5.0 0.00 0.00 0.00 29 1026.2
20260509141821 47 154 2.0 5.0 0.00 0.00 0.00 40 1026.3
20260509140315 42 153 0.0 0.0 0.00 0.00 0.00 53 1026.1
20260509134829 39 153 0.0 0.0 0.00 0.00 0.00 62 1026.1
20260509133325 37 153 0.0 0.0 0.00 0.00 0.00 66 1025.8
20260509131839 36 153 0.0 0.0 0.00 0.00 0.00 66 1025.9
20260509130312 36 153 0.0 0.0 0.00 0.00 0.00 66 1025.8
20260509124848 36 153 0.0 0.0 0.00 0.00 0.00 64 1025.5
20260509123323 35 153 0.0 0.0 0.00 0.00 0.00 64 1025.3
20260509121816 36 153 0.0 0.0 0.00 0.00 0.00 63 1025.2
20260509120311 36 153 0.0 0.0 0.00 0.00 0.00 60 1025.2
20260509114826 37 153 0.0 0.0 0.00 0.00 0.00 59 1025.2
20260509113322 38 153 0.0 0.0 0.00 0.00 0.00 57 1024.9
20260509111814 39 153 0.0 0.0 0.00 0.00 0.00 54 1024.8
20260509110329 40 153 0.0 0.0 0.00 0.00 0.00 51 1024.6
20260509104823 40 153 1.0 3.0 0.00 0.00 0.00 50 1024.6
20260509103339 41 153 0.0 2.0 0.00 0.00 0.00 49 1024.5
20260509101813 41 153 0.0 3.0 0.00 0.00 0.00 49 1024.4
20260509100320 41 153 0.0 2.0 0.00 0.00 0.00 49 1024.4
20260509094814 41 153 0.0 6.0 0.00 0.00 0.00 49 1024.5